Location: El Carrer d�Abaix
(41.5797°N, 2.1791°E)
Time: 09:02:32
(UTC+00:00)

Milstar 3 Cent rocket - Pass Details

Date: 06 June 2020
Orbit: 706 x 5147 km, 28.3° (Epoch: 11 July)

Event Time Altitude Azimuth Distance (km) Brightness Sun altitude
Rises 22:19:45 0° 246° (WSW) 4,284 5.8 -22.3°
Reaches altitude 10° 22:22:10 10° 239° (WSW) 3,645 5.4 -22.5°
Maximum altitude 22:31:32 47° 169° (S) 2,937 4.4 -23.1°
Drops below altitude 10° 22:51:05 10° 105° (ESE) 7,247 6.7 -24.2°
Sets 22:58:32 0° 101° (E) 8,871 7.2 -24.5°
